| time (UTC) | temp F | wind direction | speed MPH | gust MPH | rain 1hr in | rain 24hr in | rain mn in | humidity % | barometer mb |
| 20260904142540 | 46 | 3 | 0.0 | 3.0 | 0.00 | 0.25 | 0.14 | 87 | 1017.0 |
| 20260904141540 | 45 | 3 | 2.0 | 3.0 | 0.00 | 0.25 | 0.14 | 87 | 1016.9 |
| 20260904140540 | 45 | 3 | 0.0 | 0.0 | 0.00 | 0.25 | 0.14 | 87 | 1016.5 |
| 20260904135541 | 45 | 3 | 0.0 | 0.0 | 0.00 | 0.25 | 0.14 | 87 | 1016.5 |
| 20260904112539 | 46 | 355 | 2.0 | 4.0 | 0.00 | 0.25 | 0.14 | 86 | 1015.4 |
| 20260904111539 | 46 | 355 | 1.0 | 6.0 | 0.00 | 0.25 | 0.14 | 86 | 1015.3 |
| 20260904110539 | 46 | 346 | 6.0 | 6.0 | 0.00 | 0.25 | 0.14 | 86 | 1015.2 |
| 20260904105539 | 46 | 334 | 2.0 | 4.0 | 0.00 | 0.25 | 0.14 | 86 | 1015.2 |
| 20260904104559 | 46 | 334 | 1.0 | 3.0 | 0.00 | 0.25 | 0.14 | 86 | 1015.1 |
| 20260904103538 | 46 | 303 | 3.0 | 7.0 | 0.00 | 0.26 | 0.14 | 86 | 1015.2 |
| 20260904102538 | 46 | 312 | 3.0 | 4.0 | 0.01 | 0.26 | 0.14 | 87 | 1015.2 |
| 20260904101539 | 46 | 314 | 3.0 | 6.0 | 0.01 | 0.26 | 0.14 | 87 | 1014.9 |
| 20260904071536 | 46 | 312 | 1.0 | 7.0 | 0.11 | 0.30 | 0.11 | 86 | 1014.1 |
| 20260904070536 | 46 | 312 | 1.0 | 7.0 | 0.10 | 0.29 | 0.10 | 85 | 1013.9 |
| 20260904065536 | 46 | 316 | 3.0 | 4.0 | 0.13 | 0.28 | 0.09 | 85 | 1014.1 |
| 20260904064536 | 46 | 316 | 1.0 | 5.0 | 0.14 | 0.28 | 0.09 | 85 | 1014.2 |
| 20260904063536 | 46 | 316 | 3.0 | 5.0 | 0.13 | 0.27 | 0.08 | 85 | 1014.3 |
| 20260904062537 | 46 | 307 | 2.0 | 8.0 | 0.12 | 0.25 | 0.06 | 84 | 1014.4 |
| 20260904033554 | 48 | 298 | 8.0 | 17.0 | 0.00 | 0.08 | 0.08 | 70 | 1012.5 |
| 20260904032534 | 49 | 284 | 7.0 | 24.0 | 0.00 | 0.08 | 0.08 | 69 | 1011.8 |
| 20260904031534 | 51 | 301 | 10.0 | 20.0 | 0.00 | 0.08 | 0.08 | 65 | 1011.5 |
| 20260904030534 | 52 | 296 | 13.0 | 18.0 | 0.00 | 0.08 | 0.08 | 67 | 1011.6 |
| 20260904025534 | 52 | 293 | 10.0 | 18.0 | 0.00 | 0.08 | 0.08 | 67 | 1010.7 |
| 20260904024534 | 53 | 276 | 7.0 | 26.0 | 0.00 | 0.08 | 0.08 | 65 | 1010.3 |
| 20260904023534 | 55 | 324 | 10.0 | 16.0 | 0.00 | 0.08 | 0.08 | 67 | 1010.0 |
| 20260904022534 | 57 | 299 | 11.0 | 17.0 | 0.00 | 0.08 | 0.08 | 67 | 1009.4 |
| 20260904021554 | 58 | 240 | 6.0 | 14.0 | 0.00 | 0.08 | 0.08 | 67 | 1009.3 |
| 20260904020534 | 59 | 314 | 10.0 | 10.0 | 0.00 | 0.08 | 0.08 | 67 | 1008.8 |
| 20260904015534 | 60 | 310 | 4.0 | 12.0 | 0.00 | 0.08 | 0.08 | 66 | 1008.7 |
| 20260904014533 | 60 | 272 | 7.0 | 14.0 | 0.00 | 0.08 | 0.08 | 63 | 1008.4 |
| 20260904013533 | 62 | 315 | 10.0 | 10.0 | 0.00 | 0.08 | 0.08 | 62 | 1008.3 |
| 20260904012533 | 62 | 295 | 9.0 | 11.0 | 0.00 | 0.08 | 0.08 | 63 | 1008.2 |
| 20260904011533 | 63 | 319 | 7.0 | 10.0 | 0.00 | 0.08 | 0.08 | 64 | 1007.9 |
| 20260904010533 | 64 | 284 | 3.0 | 8.0 | 0.00 | 0.08 | 0.08 | 63 | 1007.9 |
| 20260904005533 | 64 | 298 | 5.0 | 6.0 | 0.00 | 0.08 | 0.08 | 63 | 1008.0 |
| 20260904004533 | 64 | 275 | 3.0 | 9.0 | 0.00 | 0.08 | 0.08 | 62 | 1007.9 |
| 20260904003533 | 65 | 281 | 3.0 | 9.0 | 0.00 | 0.08 | 0.08 | 61 | 1007.9 |
| 20260904002533 | 66 | 277 | 3.0 | 9.0 | 0.00 | 0.08 | 0.08 | 60 | 1008.3 |
| 20260904001532 | 66 | 304 | 3.0 | 8.0 | 0.00 | 0.08 | 0.08 | 59 | 1008.2 |
| 20260904000533 | 66 | 304 | 1.0 | 8.0 | 0.00 | 0.08 | 0.08 | 58 | 1008.1 |
| 20260903211551 | 70 | 287 | 1.0 | 3.0 | 0.00 | 0.08 | 0.08 | 47 | 1009.9 |
| 20260903210531 | 70 | 251 | 3.0 | 3.0 | 0.00 | 0.08 | 0.08 | 46 | 1010.1 |
| 20260903205531 | 70 | 310 | 3.0 | 5.0 | 0.00 | 0.08 | 0.08 | 47 | 1010.1 |
| 20260903204531 | 69 | 310 | 3.0 | 7.0 | 0.00 | 0.08 | 0.08 | 47 | 1010.2 |
| 20260903203530 | 70 | 310 | 2.0 | 4.0 | 0.00 | 0.08 | 0.08 | 46 | 1010.5 |
| 20260903202530 | 70 | 309 | 3.0 | 4.0 | 0.00 | 0.08 | 0.08 | 46 | 1010.6 |
| 20260903201531 | 70 | 308 | 2.0 | 4.0 | 0.00 | 0.08 | 0.08 | 45 | 1010.9 |
| 20260903200530 | 70 | 304 | 2.0 | 3.0 | 0.00 | 0.08 | 0.08 | 50 | 1011.1 |
| 20260903195530 | 68 | 304 | 2.0 | 5.0 | 0.00 | 0.08 | 0.08 | 49 | 1011.2 |
| 20260903194530 | 69 | 271 | 3.0 | 5.0 | 0.00 | 0.08 | 0.08 | 48 | 1011.3 |
| 20260903193530 | 69 | 258 | 3.0 | 5.0 | 0.00 | 0.08 | 0.08 | 51 | 1011.4 |
| 20260903192530 | 68 | 350 | 2.0 | 4.0 | 0.00 | 0.08 | 0.08 | 52 | 1011.6 |
| 20260903191530 | 67 | 221 | 1.0 | 3.0 | 0.00 | 0.08 | 0.08 | 52 | 1012.0 |
| 20260903190530 | 66 | 221 | 3.0 | 3.0 | 0.00 | 0.08 | 0.08 | 56 | 1012.1 |
| 20260903185530 | 66 | 193 | 1.0 | 4.0 | 0.00 | 0.08 | 0.08 | 59 | 1012.4 |
| 20260903184530 | 66 | 218 | 3.0 | 5.0 | 0.00 | 0.08 | 0.08 | 58 | 1012.6 |
| 20260903183550 | 66 | 183 | 4.0 | 5.0 | 0.00 | 0.08 | 0.08 | 55 | 1012.7 |
| 20260903182529 | 65 | 114 | 3.0 | 4.0 | 0.00 | 0.08 | 0.08 | 56 | 1012.8 |
| 20260903181549 | 65 | 110 | 3.0 | 4.0 | 0.00 | 0.08 | 0.08 | 57 | 1012.9 |
| 20260903180529 | 65 | 156 | 3.0 | 8.0 | 0.00 | 0.08 | 0.08 | 56 | 1013.0 |
| 20260903175529 | 65 | 96 | 3.0 | 9.0 | 0.00 | 0.08 | 0.08 | 56 | 1013.0 |
| 20260903174529 | 64 | 173 | 1.0 | 10.0 | 0.00 | 0.08 | 0.08 | 60 | 1013.1 |
| 20260903173529 | 63 | 147 | 6.0 | 7.0 | 0.00 | 0.08 | 0.08 | 60 | 1013.2 |
| 20260903172529 | 62 | 129 | 5.0 | 5.0 | 0.00 | 0.08 | 0.08 | 63 | 1013.3 |
| 20260903171529 | 61 | 127 | 3.0 | 5.0 | 0.00 | 0.08 | 0.08 | 67 | 1013.3 |